Tracking 19562 objects as of 22-Mar-2019
HD Live streaming from Space Station
objects crossing your sky now

GLOBALSTAR M054

Track GLOBALSTAR M054 now!
10-day predictions
GLOBALSTAR M054 is classified as:


NORAD ID: 25885
Int'l Code: 1999-043C
Perigee: 1,968.3 km
Apogee: 1,976.4 km
Inclination: 52.0 °
Period: 126.4 minutes
Semi major axis: 8343 km
RCS: 2.4739 m2 (large)
Launch date: August 17, 1999
Source: Globalstar (GLOB)
Launch site: AIR FORCE EASTERN TEST RANGE (AFETR)
aabbcc
Your satellite tracking list
Your tracking list is empty




NASA's NSSDC Master Catalog

Two Line Element Set (TLE):
1 25885U 99043C   19080.80307135 -.00000069  00000-0  49711-4 0  9990
2 25885  52.0133 286.7036 0004825 173.5220 267.6470 11.39175884859602
Source of the keplerian elements: AFSPC